Regional Weather Roundup
Issued by NWS

Home | Current Version | Previous Version | Text Only | Print | Product List | Glossary On
Versions: 1 2 3 4 5 6 7 8 9 10 11 12 13 14 15 16 17 18 19 20 21 22 23 24 25 26 27 28 29 30 31 32 33 34 35 36 37 38 39 40 41 42 43 44 45 46 47 48 49 50
000
ASUS44 KJAN 021610
RWRMS

MISSISSIPPI HOURLY WEATHER ROUNDUP
NATIONAL WEATHER SERVICE JACKSON MS
1100 AM CDT TUE SEP 02 2014

NOTE: "FAIR: INDICATES FEW OR NO CLOUDS BELOW 12,000 FEET WITH NO
SIGNIFICANT WEATHER AND/OR OBSTRUCTIONS TO VISIBILITY.

MSZ001>002-007>008-010>013-018>021-025>028-034>036-021700-
NORTHWEST MISSISSIPPI

CITY           SKY/WX    TMP DP  RH WIND       PRES   REMARKS
CLARKSDALE     CLOUDY    82  77  83 SW5       30.08R HX  91
CLEVELAND      CLOUDY    81  77  88 W6        30.08R
GREENWOOD      PTSUNNY   83  75  77 VRB3      30.08R HX  90
GREENVILLE     CLOUDY    83  75  77 SW5       30.07S HX  90
GRENADA        CLOUDY    82  73  74 SW7       30.08S
OLIVE BRANCH   CLOUDY    81  79  94 W9        30.07F
OXFORD         FAIR      81  73  78 W6        30.09F
TUNICA         CLOUDY    82  73  74 SW6       30.06F
$$

MSZ003>006-009-014>017-022>024-029>033-037>039-021700-
NORTHEAST MISSISSIPPI

CITY           SKY/WX    TMP DP  RH WIND       PRES   REMARKS
BELMONT        CLOUDY    82  75  78 SW6       30.10R
COLUMBUS AFB   MOSUNNY   86  73  66 SW6       30.08S HX  93
CORINTH        PTSUNNY   84  75  74 SW9       30.06F HX  92
GOLDN TRIANGLE PTSUNNY   88  73  62 SW6       30.10R HX  96
STARKVILLE     FAIR      86  72  62 CALM      30.09R HX  92
TUPELO         MOSUNNY   87  74  64 VRB7      30.07F HX  95
$$

MSZ040-058-021700-
CENTRAL MISSISSIPPI

CITY           SKY/WX    TMP DP  RH WIND       PRES   REMARKS
JACKSON INTL   PTSUNNY   82  76  81 S6        30.09R
JACKSON HAWKNS MOSUNNY   84  75  74 S7        30.09S HX  92
MERIDIAN KEY   CLOUDY    84  75  74 S6        30.10R HX  92
MERIDIAN NAS   PTSUNNY   85  75  72 W6        30.10S HX  93
RAYMOND        PTSUNNY   86  81  84 SW8       30.09R HX 102
VICKSBURG      PTSUNNY   88  76  67 VRB3      30.07S HX  99
$$

MSZ059>079-021700-
SOUTH MISSISSIPPI

CITY           SKY/WX    TMP DP  RH WIND       PRES   REMARKS
BROOKHAVEN     FAIR      82  79  89 S6        30.11S HX  93
HATTIESBURG    CLOUDY    87  76  69 CALM      30.10R HX  97
MCCOMB         MOSUNNY   85  73  67 S7        30.09S HX  91
NATCHEZ        PTSUNNY   86  77  74 S10       30.08S HX  97
PINE BELT      CLOUDY    84  73  70 SW6       30.11S HX  91
$$

MSZ080>082-021700-
COASTAL MISSISSIPPI

CITY           SKY/WX    TMP DP  RH WIND       PRES   REMARKS
BAY ST LOUIS   MOSUNNY  N/A N/A N/A S9        30.08R
BILOXI         MOSUNNY   89  77  67 S6        30.08S HX 100
PASCAGOULA     MOSUNNY   88  74  63 SE3       30.08S HX  96
GULFPORT       MOSUNNY   88  75  65 S7        30.08R HX  97
$$


USA.gov is the U.S. government's official web portal to all federal, state and local government web resources and services.